Time,TemperatureF,DewpointF,PressureIn,WindDirection,WindDirectionDegrees,WindSpeedMPH,WindSpeedGustMPH,Humidity,HourlyPrecipIn,Conditions,Clouds,dailyrainin,SoftwareType,DateUTC
2013-03-05 00:03:00,20.1,7.1,29.99,SSE,158,0.0,0.0,57,0.00,,,0.00,WUHU215HW,2013-03-05 07:03:00,
2013-03-05 00:08:00,19.9,7.0,29.99,SSE,158,0.0,0.0,57,0.00,,,0.00,WUHU215HW,2013-03-05 07:08:00,
2013-03-05 00:13:00,19.9,7.0,29.99,SSE,158,0.0,0.0,57,0.00,,,0.00,WUHU215HW,2013-03-05 07:13:00,
2013-03-05 00:18:00,19.9,7.0,29.98,SSE,158,0.0,0.0,57,0.00,,,0.00,WUHU215HW,2013-03-05 07:18:00,
2013-03-05 00:23:00,20.1,7.6,29.98,SSE,158,0.0,0.0,58,0.00,,,0.00,WUHU215HW,2013-03-05 07:23:00,
2013-03-05 00:28:00,20.1,7.6,29.98,SSE,158,0.0,0.0,58,0.00,,,0.00,WUHU215HW,2013-03-05 07:28:00,
2013-03-05 00:33:00,20.1,7.6,29.98,SSE,158,0.0,0.0,58,0.00,,,0.00,WUHU215HW,2013-03-05 07:33:00,
2013-03-05 00:38:00,19.9,7.8,29.98,SSE,158,0.0,0.0,59,0.00,,,0.00,WUHU215HW,2013-03-05 07:38:00,
2013-03-05 00:43:00,19.7,7.6,29.98,SSE,158,0.0,0.0,59,0.00,,,0.00,WUHU215HW,2013-03-05 07:43:00,
2013-03-05 00:48:00,19.5,7.4,29.98,SSE,158,0.0,0.0,59,0.00,,,0.00,WUHU215HW,2013-03-05 07:48:00,
2013-03-05 00:53:00,19.5,7.4,29.98,SSE,158,0.0,0.0,59,0.00,,,0.00,WUHU215HW,2013-03-05 07:53:00,
2013-03-05 00:58:00,19.2,7.1,29.97,SSE,158,0.0,0.0,59,0.00,,,0.00,WUHU215HW,2013-03-05 07:58:00,
2013-03-05 01:03:00,19.2,7.1,29.97,SSE,158,0.0,0.0,59,0.00,,,0.00,WUHU215HW,2013-03-05 08:03:00,
2013-03-05 01:08:00,19.2,6.9,29.97,SSE,158,0.0,0.0,59,0.00,,,0.00,WUHU215HW,2013-03-05 08:08:00,
2013-03-05 01:13:00,19.0,6.9,29.97,SSE,158,0.0,0.0,59,0.00,,,0.00,WUHU215HW,2013-03-05 08:13:00,
2013-03-05 01:18:00,18.8,7.2,29.97,SSE,158,0.0,0.0,60,0.00,,,0.00,WUHU215HW,2013-03-05 08:18:00,
2013-03-05 01:23:00,18.6,7.0,29.97,SSE,158,0.0,0.0,60,0.00,,,0.00,WUHU215HW,2013-03-05 08:23:00,
2013-03-05 01:28:00,18.6,7.0,29.96,SSE,158,0.0,0.0,60,0.00,,,0.00,WUHU215HW,2013-03-05 08:28:00,
2013-03-05 01:33:00,18.6,7.0,29.97,SSE,158,0.0,0.0,60,0.00,,,0.00,WUHU215HW,2013-03-05 08:33:00,
2013-03-05 01:38:00,18.5,6.4,29.96,SSE,158,0.0,0.0,60,0.00,,,0.00,WUHU215HW,2013-03-05 08:38:00,
2013-03-05 01:43:00,18.3,6.7,29.97,SSE,158,0.0,0.0,60,0.00,,,0.00,WUHU215HW,2013-03-05 08:43:00,
2013-03-05 01:48:00,18.3,6.7,29.97,SSE,158,0.0,0.0,60,0.00,,,0.00,WUHU215HW,2013-03-05 08:48:00,
2013-03-05 01:53:00,18.3,6.7,29.96,SSE,158,0.0,0.0,60,0.00,,,0.00,WUHU215HW,2013-03-05 08:53:00,
2013-03-05 01:58:00,18.3,7.0,29.97,SSE,158,0.0,0.0,61,0.00,,,0.00,WUHU215HW,2013-03-05 08:58:00,
2013-03-05 02:03:00,18.5,7.5,29.97,SSE,158,0.0,0.0,62,0.00,,,0.00,WUHU215HW,2013-03-05 09:03:00,
2013-03-05 02:08:00,18.6,7.7,29.97,SSE,158,0.0,0.0,62,0.00,,,0.00,WUHU215HW,2013-03-05 09:08:00,
2013-03-05 02:14:00,18.6,7.3,29.97,SSE,158,0.0,0.0,61,0.00,,,0.00,WUHU215HW,2013-03-05 09:14:00,
2013-03-05 02:19:00,18.6,7.3,29.97,SSE,158,0.0,0.0,61,0.00,,,0.00,WUHU215HW,2013-03-05 09:19:00,
2013-03-05 02:25:00,18.6,7.7,29.97,SSE,158,0.0,0.0,62,0.00,,,0.00,WUHU215HW,2013-03-05 09:25:00,
2013-03-05 02:30:00,18.6,7.3,29.97,SSE,158,0.0,0.0,61,0.00,,,0.00,WUHU215HW,2013-03-05 09:30:00,
2013-03-05 02:36:00,18.5,7.5,29.96,SSE,158,0.0,0.0,62,0.00,,,0.00,WUHU215HW,2013-03-05 09:36:00,
2013-03-05 02:41:00,18.3,7.0,29.96,SSE,158,0.0,0.0,61,0.00,,,0.00,WUHU215HW,2013-03-05 09:41:00,
2013-03-05 02:46:00,18.3,7.4,29.96,SSE,158,0.0,0.0,62,0.00,,,0.00,WUHU215HW,2013-03-05 09:46:00,
2013-03-05 02:51:00,18.1,7.5,29.96,SSE,158,0.0,0.0,63,0.00,,,0.00,WUHU215HW,2013-03-05 09:51:00,
2013-03-05 02:56:00,18.1,7.5,29.96,SSE,158,0.0,0.0,63,0.00,,,0.00,WUHU215HW,2013-03-05 09:56:00,
2013-03-05 03:02:00,17.7,7.2,29.96,SSE,158,0.0,0.0,63,0.00,,,0.00,WUHU215HW,2013-03-05 10:02:00,
2013-03-05 03:08:00,17.4,6.9,29.96,SSE,158,0.0,0.0,63,0.00,,,0.00,WUHU215HW,2013-03-05 10:08:00,
2013-03-05 03:13:00,17.4,6.9,29.96,SSE,158,0.0,0.0,63,0.00,,,0.00,WUHU215HW,2013-03-05 10:13:00,
2013-03-05 03:18:00,17.4,6.9,29.95,SSE,158,0.0,0.0,63,0.00,,,0.00,WUHU215HW,2013-03-05 10:18:00,
2013-03-05 03:23:00,17.4,6.9,29.95,SSE,158,0.0,0.0,63,0.00,,,0.00,WUHU215HW,2013-03-05 10:23:00,
2013-03-05 03:28:00,17.2,6.7,29.95,SSE,158,0.0,0.0,63,0.00,,,0.00,WUHU215HW,2013-03-05 10:28:00,
2013-03-05 03:33:00,17.2,6.7,29.95,SSE,158,0.0,0.0,63,0.00,,,0.00,WUHU215HW,2013-03-05 10:33:00,
2013-03-05 03:38:00,17.4,6.9,29.95,SSE,158,0.0,0.0,63,0.00,,,0.00,WUHU215HW,2013-03-05 10:38:00,
2013-03-05 03:43:00,17.7,7.6,29.95,SSE,158,0.0,0.0,64,0.00,,,0.00,WUHU215HW,2013-03-05 10:43:00,
2013-03-05 03:48:00,17.7,7.6,29.95,SSE,158,0.0,0.0,64,0.00,,,0.00,WUHU215HW,2013-03-05 10:48:00,
2013-03-05 03:53:00,17.7,7.6,29.94,SSE,158,0.0,0.0,64,0.00,,,0.00,WUHU215HW,2013-03-05 10:53:00,
2013-03-05 03:58:00,17.7,7.6,29.94,SSE,158,0.0,0.0,64,0.00,,,0.00,WUHU215HW,2013-03-05 10:58:00,
2013-03-05 04:03:00,17.4,6.9,29.94,SSE,158,0.0,0.0,63,0.00,,,0.00,WUHU215HW,2013-03-05 11:03:00,
2013-03-05 04:08:00,17.4,7.2,29.94,SSE,158,0.0,0.0,64,0.00,,,0.00,WUHU215HW,2013-03-05 11:08:00,
2013-03-05 04:13:00,17.4,7.2,29.94,SSE,158,0.0,0.0,64,0.00,,,0.00,WUHU215HW,2013-03-05 11:13:00,
2013-03-05 04:18:00,17.4,7.2,29.94,SSE,158,0.0,0.0,64,0.00,,,0.00,WUHU215HW,2013-03-05 11:18:00,
2013-03-05 04:23:00,17.2,7.0,29.94,SSE,158,0.0,0.0,64,0.00,,,0.00,WUHU215HW,2013-03-05 11:23:00,
2013-03-05 04:28:00,17.2,7.0,29.94,SSE,158,0.0,0.0,64,0.00,,,0.00,WUHU215HW,2013-03-05 11:28:00,
2013-03-05 04:33:00,17.2,7.4,29.94,SSE,158,0.0,0.0,65,0.00,,,0.00,WUHU215HW,2013-03-05 11:33:00,
2013-03-05 04:38:00,16.8,7.0,29.94,SSE,158,0.0,0.0,65,0.00,,,0.00,WUHU215HW,2013-03-05 11:38:00,
2013-03-05 04:43:00,16.7,6.8,29.94,SSE,158,0.0,0.0,65,0.00,,,0.00,WUHU215HW,2013-03-05 11:43:00,
2013-03-05 04:48:00,16.7,6.8,29.94,SSE,158,0.0,0.0,65,0.00,,,0.00,WUHU215HW,2013-03-05 11:48:00,
2013-03-05 04:53:00,16.5,6.7,29.94,SSE,158,0.0,0.0,65,0.00,,,0.00,WUHU215HW,2013-03-05 11:53:00,
2013-03-05 04:58:00,16.7,6.8,29.94,SSE,158,0.0,0.0,65,0.00,,,0.00,WUHU215HW,2013-03-05 11:58:00,
2013-03-05 05:03:00,16.7,6.8,29.94,SSE,158,0.0,0.0,65,0.00,,,0.00,WUHU215HW,2013-03-05 12:03:00,
2013-03-05 05:08:00,16.7,6.8,29.94,SSE,158,0.0,0.0,65,0.00,,,0.00,WUHU215HW,2013-03-05 12:08:00,
2013-03-05 05:13:00,16.8,7.0,29.93,SSE,158,0.0,0.0,65,0.00,,,0.00,WUHU215HW,2013-03-05 12:13:00,
2013-03-05 05:18:00,16.8,7.0,29.93,SSE,158,0.0,0.0,65,0.00,,,0.00,WUHU215HW,2013-03-05 12:18:00,
2013-03-05 05:23:00,16.8,7.0,29.93,SSE,158,0.0,0.0,65,0.00,,,0.00,WUHU215HW,2013-03-05 12:23:00,
2013-03-05 05:28:00,17.2,7.7,29.93,SSE,158,0.0,0.0,66,0.00,,,0.00,WUHU215HW,2013-03-05 12:28:00,
2013-03-05 05:33:00,17.4,7.9,29.93,SSE,158,0.0,0.0,66,0.00,,,0.00,WUHU215HW,2013-03-05 12:33:00,
2013-03-05 05:38:00,17.4,7.9,29.92,SSE,158,0.0,0.0,66,0.00,,,0.00,WUHU215HW,2013-03-05 12:38:00,
2013-03-05 05:43:00,17.4,7.9,29.92,SSE,158,0.0,0.0,66,0.00,,,0.00,WUHU215HW,2013-03-05 12:43:00,
2013-03-05 05:48:00,17.2,7.7,29.93,SSE,158,0.0,0.0,66,0.00,,,0.00,WUHU215HW,2013-03-05 12:48:00,
2013-03-05 05:53:00,17.0,7.5,29.92,SSE,158,0.0,0.0,66,0.00,,,0.00,WUHU215HW,2013-03-05 12:53:00,
2013-03-05 05:58:00,16.8,7.4,29.92,SSE,158,0.0,0.0,66,0.00,,,0.00,WUHU215HW,2013-03-05 12:58:00,
2013-03-05 06:03:00,17.2,8.1,29.92,SSE,158,0.0,0.0,67,0.00,,,0.00,WUHU215HW,2013-03-05 13:03:00,
2013-03-05 06:08:00,17.4,8.2,29.92,SSE,158,0.0,0.0,67,0.00,,,0.00,WUHU215HW,2013-03-05 13:08:00,
2013-03-05 06:13:00,17.4,8.2,29.92,SSE,158,0.0,0.0,67,0.00,,,0.00,WUHU215HW,2013-03-05 13:13:00,
2013-03-05 06:18:00,17.4,8.2,29.92,SSE,158,0.0,0.0,67,0.00,,,0.00,WUHU215HW,2013-03-05 13:18:00,
2013-03-05 06:23:00,17.7,8.6,29.92,SSE,158,0.0,0.0,67,0.00,,,0.00,WUHU215HW,2013-03-05 13:23:00,
2013-03-05 06:28:00,17.7,8.2,29.92,SSE,158,0.0,0.0,66,0.00,,,0.00,WUHU215HW,2013-03-05 13:28:00,
2013-03-05 06:33:00,17.4,7.9,29.92,SSE,158,0.0,0.0,66,0.00,,,0.00,WUHU215HW,2013-03-05 13:33:00,
2013-03-05 06:38:00,17.2,8.1,29.91,SSE,158,0.0,0.0,67,0.00,,,0.00,WUHU215HW,2013-03-05 13:38:00,
2013-03-05 06:43:00,17.2,8.1,29.91,SSE,158,0.0,0.0,67,0.00,,,0.00,WUHU215HW,2013-03-05 13:43:00,
2013-03-05 06:48:00,17.2,8.1,29.91,SSE,158,0.0,0.0,67,0.00,,,0.00,WUHU215HW,2013-03-05 13:48:00,
2013-03-05 06:53:00,17.4,8.2,29.91,SSE,158,0.0,0.0,67,0.00,,,0.00,WUHU215HW,2013-03-05 13:53:00,
2013-03-05 06:58:00,17.4,8.2,29.91,SSE,158,0.0,0.0,67,0.00,,,0.00,WUHU215HW,2013-03-05 13:58:00,
2013-03-05 07:03:00,17.4,8.2,29.91,SSE,158,0.0,0.0,67,0.00,,,0.00,WUHU215HW,2013-03-05 14:03:00,
2013-03-05 07:08:00,17.4,8.2,29.91,SSE,158,0.0,0.0,67,0.00,,,0.00,WUHU215HW,2013-03-05 14:08:00,
2013-03-05 07:13:00,17.4,7.9,29.91,SSE,158,0.0,0.0,66,0.00,,,0.00,WUHU215HW,2013-03-05 14:13:00,
2013-03-05 07:18:00,17.4,7.9,29.91,SSE,158,0.0,0.0,66,0.00,,,0.00,WUHU215HW,2013-03-05 14:18:00,
2013-03-05 07:23:00,17.2,8.1,29.91,SSE,158,0.0,0.0,67,0.00,,,0.00,WUHU215HW,2013-03-05 14:23:00,
2013-03-05 07:28:00,17.2,8.1,29.91,SSE,158,0.0,0.0,67,0.00,,,0.00,WUHU215HW,2013-03-05 14:28:00,
2013-03-05 07:33:00,16.8,7.7,29.91,SSE,158,0.0,0.0,67,0.00,,,0.00,WUHU215HW,2013-03-05 14:33:00,
2013-03-05 07:38:00,17.4,8.2,29.91,SSE,158,0.0,0.0,67,0.00,,,0.00,WUHU215HW,2013-03-05 14:38:00,
2013-03-05 07:43:00,17.7,8.6,29.90,SSE,158,0.0,0.0,67,0.00,,,0.00,WUHU215HW,2013-03-05 14:43:00,
2013-03-05 07:48:00,17.9,8.7,29.90,SSE,158,0.0,0.0,67,0.00,,,0.00,WUHU215HW,2013-03-05 14:48:00,
2013-03-05 07:53:00,17.9,9.1,29.90,SSE,158,0.0,0.0,68,0.00,,,0.00,WUHU215HW,2013-03-05 14:53:00,
2013-03-05 07:58:00,18.3,9.4,29.90,SSE,158,0.0,0.0,68,0.00,,,0.00,WUHU215HW,2013-03-05 14:58:00,
2013-03-05 08:03:00,18.8,9.9,29.90,SSE,158,0.0,0.0,68,0.00,,,0.00,WUHU215HW,2013-03-05 15:03:00,
2013-03-05 08:08:00,19.5,10.2,29.89,SSE,158,0.0,0.0,67,0.00,,,0.00,WUHU215HW,2013-03-05 15:08:00,
2013-03-05 08:13:00,19.5,10.2,29.89,SSE,158,0.0,0.0,67,0.00,,,0.00,WUHU215HW,2013-03-05 15:13:00,
2013-03-05 08:18:00,20.1,10.8,29.89,SSE,158,0.0,0.0,67,0.00,,,0.00,WUHU215HW,2013-03-05 15:18:00,
2013-03-05 08:23:00,20.8,11.5,29.89,SSE,158,0.0,0.0,67,0.00,,,0.00,WUHU215HW,2013-03-05 15:23:00,
2013-03-05 08:28:00,21.0,11.7,29.89,SSE,158,0.0,0.0,67,0.00,,,0.00,WUHU215HW,2013-03-05 15:28:00,
2013-03-05 08:33:00,21.3,12.0,29.90,SSE,158,0.0,0.0,67,0.00,,,0.00,WUHU215HW,2013-03-05 15:33:00,
2013-03-05 08:38:00,21.9,12.5,29.90,SSE,158,0.0,0.0,67,0.00,,,0.00,WUHU215HW,2013-03-05 15:38:00,
2013-03-05 08:43:00,22.2,12.5,29.90,SSE,158,0.0,0.0,66,0.00,,,0.00,WUHU215HW,2013-03-05 15:43:00,
2013-03-05 08:48:00,22.8,13.1,29.89,SSE,158,0.0,0.0,66,0.00,,,0.00,WUHU215HW,2013-03-05 15:48:00,
2013-03-05 08:53:00,23.7,13.9,29.90,SSE,158,0.0,0.0,66,0.00,,,0.00,WUHU215HW,2013-03-05 15:53:00,
2013-03-05 08:58:00,24.4,14.6,29.90,SSE,158,0.0,0.0,66,0.00,,,0.00,WUHU215HW,2013-03-05 15:58:00,
2013-03-05 09:03:00,24.6,14.4,29.89,SSE,158,0.0,0.0,65,0.00,,,0.00,WUHU215HW,2013-03-05 16:03:00,
2013-03-05 09:08:00,25.5,15.3,29.89,SSE,158,0.0,0.0,65,0.00,,,0.00,WUHU215HW,2013-03-05 16:08:00,
2013-03-05 09:13:00,26.2,15.6,29.89,SSE,158,0.0,0.0,64,0.00,,,0.00,WUHU215HW,2013-03-05 16:13:00,
2013-03-05 09:18:00,26.7,16.1,29.89,SSE,158,0.0,0.0,64,0.00,,,0.00,WUHU215HW,2013-03-05 16:18:00,
2013-03-05 09:23:00,28.0,17.0,29.89,SSE,158,0.0,0.0,63,0.00,,,0.00,WUHU215HW,2013-03-05 16:23:00,
2013-03-05 09:28:00,28.7,17.3,29.89,SSE,158,0.0,0.0,62,0.00,,,0.00,WUHU215HW,2013-03-05 16:28:00,
2013-03-05 09:33:00,29.1,17.3,29.89,SSE,158,0.0,0.0,61,0.00,,,0.00,WUHU215HW,2013-03-05 16:33:00,
2013-03-05 09:38:00,30.9,18.6,29.88,SSE,158,0.0,0.0,60,0.00,,,0.00,WUHU215HW,2013-03-05 16:38:00,
2013-03-05 09:43:00,31.4,18.7,29.88,SSE,158,0.0,0.0,59,0.00,,,0.00,WUHU215HW,2013-03-05 16:43:00,
2013-03-05 09:48:00,31.8,18.7,29.88,SSE,158,0.0,0.0,58,0.00,,,0.00,WUHU215HW,2013-03-05 16:48:00,
2013-03-05 09:53:00,32.1,19.0,29.88,SSE,158,0.0,0.0,58,0.00,,,0.00,WUHU215HW,2013-03-05 16:53:00,
2013-03-05 09:58:00,32.7,19.5,29.88,SSE,158,0.0,0.0,58,0.00,,,0.00,WUHU215HW,2013-03-05 16:58:00,
2013-03-05 10:03:00,33.4,20.1,29.88,SSE,158,0.0,0.0,58,0.00,,,0.00,WUHU215HW,2013-03-05 17:03:00,
2013-03-05 10:08:00,34.7,20.1,29.88,SSE,158,0.0,0.0,55,0.00,,,0.00,WUHU215HW,2013-03-05 17:08:00,
2013-03-05 10:13:00,35.4,20.4,29.88,SSE,158,0.0,0.0,54,0.00,,,0.00,WUHU215HW,2013-03-05 17:13:00,
2013-03-05 10:18:00,35.7,20.3,29.88,South,180,0.0,0.0,53,0.00,,,0.00,WUHU215HW,2013-03-05 17:18:00,
2013-03-05 10:23:00,36.1,20.2,29.87,South,180,0.0,0.0,52,0.00,,,0.00,WUHU215HW,2013-03-05 17:23:00,
2013-03-05 10:28:00,36.3,19.9,29.87,South,180,0.0,0.0,51,0.00,,,0.00,WUHU215HW,2013-03-05 17:28:00,
2013-03-05 10:33:00,36.3,19.5,29.87,South,180,0.0,0.0,50,0.00,,,0.00,WUHU215HW,2013-03-05 17:33:00,
2013-03-05 10:38:00,36.6,19.3,29.87,South,180,0.0,0.0,49,0.00,,,0.00,WUHU215HW,2013-03-05 17:38:00,
2013-03-05 10:43:00,36.6,18.7,29.86,South,180,0.0,0.0,48,0.00,,,0.00,WUHU215HW,2013-03-05 17:43:00,
2013-03-05 10:48:00,37.0,19.1,29.86,South,180,0.0,0.0,48,0.00,,,0.00,WUHU215HW,2013-03-05 17:48:00,
2013-03-05 10:53:00,37.5,19.0,29.86,South,180,0.0,0.0,47,0.00,,,0.00,WUHU215HW,2013-03-05 17:53:00,
2013-03-05 10:58:00,38.1,19.5,29.86,South,180,0.0,0.0,47,0.00,,,0.00,WUHU215HW,2013-03-05 17:58:00,
2013-03-05 11:03:00,38.6,19.7,29.86,South,180,0.0,0.0,47,0.00,,,0.00,WUHU215HW,2013-03-05 18:03:00,
2013-03-05 11:08:00,39.0,19.8,29.86,WSW,248,0.0,0.0,46,0.00,,,0.00,WUHU215HW,2013-03-05 18:08:00,
2013-03-05 11:13:00,39.9,20.1,29.86,WSW,248,0.0,0.0,45,0.00,,,0.00,WUHU215HW,2013-03-05 18:13:00,
2013-03-05 11:18:00,40.2,20.4,29.86,WSW,248,0.0,0.0,44,0.00,,,0.00,WUHU215HW,2013-03-05 18:18:00,
2013-03-05 11:23:00,41.3,20.9,29.86,WSW,248,0.0,0.0,44,0.00,,,0.00,WUHU215HW,2013-03-05 18:23:00,
2013-03-05 11:29:00,42.0,21.0,29.85,WSW,248,0.0,0.0,43,0.00,,,0.00,WUHU215HW,2013-03-05 18:29:00,
2013-03-05 11:34:00,42.4,20.8,29.85,WSW,248,0.0,0.0,42,0.00,,,0.00,WUHU215HW,2013-03-05 18:34:00,
2013-03-05 11:39:00,42.8,21.2,29.84,SW,225,0.0,0.0,42,0.00,,,0.00,WUHU215HW,2013-03-05 18:39:00,
2013-03-05 11:44:00,42.8,20.6,29.84,WSW,248,0.0,0.0,41,0.00,,,0.00,WUHU215HW,2013-03-05 18:44:00,
2013-03-05 11:49:00,42.9,21.3,29.84,SW,225,0.0,0.0,42,0.00,,,0.00,WUHU215HW,2013-03-05 18:49:00,
2013-03-05 11:54:00,42.9,20.8,29.84,SW,225,0.0,0.0,41,0.00,,,0.00,WUHU215HW,2013-03-05 18:54:00,
2013-03-05 11:59:00,43.5,21.3,29.84,SW,225,0.0,0.0,41,0.00,,,0.00,WUHU215HW,2013-03-05 18:59:00,
2013-03-05 12:04:00,44.2,21.4,29.84,WSW,248,0.0,0.0,40,0.00,,,0.00,WUHU215HW,2013-03-05 19:04:00,
2013-03-05 12:09:00,44.6,21.7,29.84,West,270,0.0,0.0,40,0.00,,,0.00,WUHU215HW,2013-03-05 19:09:00,
2013-03-05 12:14:00,45.1,21.5,29.83,WNW,293,0.0,0.0,39,0.00,,,0.00,WUHU215HW,2013-03-05 19:14:00,
2013-03-05 12:19:00,45.6,22.0,29.83,West,270,0.0,0.0,39,0.00,,,0.00,WUHU215HW,2013-03-05 19:19:00,
2013-03-05 12:24:00,45.6,21.3,29.83,NNW,338,0.0,0.0,38,0.00,,,0.00,WUHU215HW,2013-03-05 19:24:00,
2013-03-05 12:29:00,46.2,22.5,29.83,NNW,338,0.0,0.0,39,0.00,,,0.00,WUHU215HW,2013-03-05 19:29:00,
2013-03-05 12:34:00,46.4,22.0,29.83,NW,315,0.0,0.0,38,0.00,,,0.00,WUHU215HW,2013-03-05 19:34:00,
2013-03-05 12:39:00,46.5,22.1,29.83,SW,225,0.0,0.0,38,0.00,,,0.00,WUHU215HW,2013-03-05 19:39:00,
2013-03-05 12:44:00,46.9,22.5,29.83,SW,225,0.0,0.0,38,0.00,,,0.00,WUHU215HW,2013-03-05 19:44:00,
2013-03-05 12:49:00,46.9,22.5,29.82,SSW,203,0.0,0.0,38,0.00,,,0.00,WUHU215HW,2013-03-05 19:49:00,
2013-03-05 12:54:00,46.9,22.5,29.82,SW,225,0.0,0.0,38,0.00,,,0.00,WUHU215HW,2013-03-05 19:54:00,
2013-03-05 12:59:00,47.1,22.6,29.82,SW,225,0.0,0.0,38,0.00,,,0.00,WUHU215HW,2013-03-05 19:59:00,
2013-03-05 13:04:00,47.3,22.1,29.81,WSW,248,0.0,0.0,37,0.00,,,0.00,WUHU215HW,2013-03-05 20:04:00,
2013-03-05 13:09:00,47.4,22.3,29.81,West,270,0.0,0.0,37,0.00,,,0.00,WUHU215HW,2013-03-05 20:09:00,
2013-03-05 13:14:00,48.2,23.6,29.81,WSW,248,0.0,0.0,38,0.00,,,0.00,WUHU215HW,2013-03-05 20:14:00,
2013-03-05 13:19:00,48.5,23.2,29.81,WSW,248,0.0,0.0,37,0.00,,,0.00,WUHU215HW,2013-03-05 20:19:00,
2013-03-05 13:24:00,48.7,23.4,29.81,WSW,248,0.0,0.0,37,0.00,,,0.00,WUHU215HW,2013-03-05 20:24:00,
2013-03-05 13:29:00,49.2,23.2,29.80,WNW,293,0.0,0.0,36,0.00,,,0.00,WUHU215HW,2013-03-05 20:29:00,
2013-03-05 13:34:00,49.2,23.2,29.80,NW,315,0.0,0.0,36,0.00,,,0.00,WUHU215HW,2013-03-05 20:34:00,
2013-03-05 13:39:00,49.6,23.5,29.80,NW,315,0.0,0.0,36,0.00,,,0.00,WUHU215HW,2013-03-05 20:39:00,
2013-03-05 13:44:00,49.8,24.3,29.80,NW,315,0.0,0.0,37,0.00,,,0.00,WUHU215HW,2013-03-05 20:44:00,
2013-03-05 13:49:00,50.1,24.0,29.79,NW,315,0.0,0.0,36,0.00,,,0.00,WUHU215HW,2013-03-05 20:49:00,
2013-03-05 13:54:00,50.3,24.1,29.79,West,270,0.0,0.0,36,0.00,,,0.00,WUHU215HW,2013-03-05 20:54:00,
2013-03-05 13:59:00,51.2,24.9,29.79,West,270,0.0,0.0,36,0.00,,,0.00,WUHU215HW,2013-03-05 20:59:00,
2013-03-05 14:04:00,51.9,24.9,29.79,NNW,338,0.0,0.0,35,0.00,,,0.00,WUHU215HW,2013-03-05 21:04:00,
2013-03-05 14:09:00,52.1,25.1,29.79,WSW,248,0.0,0.0,35,0.00,,,0.00,WUHU215HW,2013-03-05 21:09:00,
2013-03-05 14:14:00,52.5,24.7,29.78,West,270,0.0,0.0,34,0.00,,,0.00,WUHU215HW,2013-03-05 21:14:00,
2013-03-05 14:19:00,52.8,25.7,29.78,West,270,0.0,0.0,35,0.00,,,0.00,WUHU215HW,2013-03-05 21:19:00,
2013-03-05 14:24:00,53.2,26.0,29.78,West,270,0.0,0.0,35,0.00,,,0.00,WUHU215HW,2013-03-05 21:24:00,
2013-03-05 14:29:00,53.7,25.8,29.78,West,270,0.0,0.0,34,0.00,,,0.00,WUHU215HW,2013-03-05 21:29:00,
2013-03-05 14:34:00,54.1,25.4,29.78,West,270,0.0,0.0,33,0.00,,,0.00,WUHU215HW,2013-03-05 21:34:00,
2013-03-05 14:39:00,54.3,26.3,29.78,North,0,0.0,0.0,34,0.00,,,0.00,WUHU215HW,2013-03-05 21:39:00,
2013-03-05 14:44:00,55.0,26.2,29.78,West,270,0.0,0.0,33,0.00,,,0.00,WUHU215HW,2013-03-05 21:44:00,
2013-03-05 14:49:00,55.0,26.9,29.78,West,270,0.0,0.0,34,0.00,,,0.00,WUHU215HW,2013-03-05 21:49:00,
2013-03-05 14:54:00,54.6,26.6,29.78,West,270,0.0,0.0,34,0.00,,,0.00,WUHU215HW,2013-03-05 21:54:00,
2013-03-05 14:59:00,53.9,26.0,29.77,West,270,0.0,0.0,34,0.00,,,0.00,WUHU215HW,2013-03-05 21:59:00,
2013-03-05 15:04:00,54.3,26.3,29.78,West,270,0.0,0.0,34,0.00,,,0.00,WUHU215HW,2013-03-05 22:04:00,
2013-03-05 15:09:00,54.3,26.3,29.77,NNE,23,0.0,0.0,34,0.00,,,0.00,WUHU215HW,2013-03-05 22:09:00,
2013-03-05 15:14:00,53.7,25.1,29.78,West,270,0.0,0.0,33,0.00,,,0.00,WUHU215HW,2013-03-05 22:14:00,
2013-03-05 15:19:00,53.4,25.5,29.77,West,270,0.0,0.0,34,0.00,,,0.00,WUHU215HW,2013-03-05 22:19:00,
2013-03-05 15:24:00,52.3,24.6,29.78,West,270,0.0,0.0,34,0.00,,,0.00,WUHU215HW,2013-03-05 22:24:00,
2013-03-05 15:29:00,52.1,25.1,29.77,WSW,248,0.0,0.0,35,0.00,,,0.00,WUHU215HW,2013-03-05 22:29:00,
2013-03-05 15:34:00,51.6,24.6,29.78,WSW,248,0.0,0.0,35,0.00,,,0.00,WUHU215HW,2013-03-05 22:34:00,
2013-03-05 15:39:00,51.2,24.3,29.77,WSW,248,0.0,0.0,35,0.00,,,0.00,WUHU215HW,2013-03-05 22:39:00,
2013-03-05 15:44:00,50.5,23.6,29.77,WSW,248,0.0,0.0,35,0.00,,,0.00,WUHU215HW,2013-03-05 22:44:00,
2013-03-05 15:49:00,50.3,24.1,29.77,NW,315,0.0,0.0,36,0.00,,,0.00,WUHU215HW,2013-03-05 22:49:00,
2013-03-05 15:54:00,50.0,24.0,29.77,WNW,293,0.0,0.0,36,0.00,,,0.00,WUHU215HW,2013-03-05 22:54:00,
2013-03-05 15:59:00,49.8,23.7,29.77,WNW,293,0.0,0.0,36,0.00,,,0.00,WUHU215HW,2013-03-05 22:59:00,
2013-03-05 16:04:00,49.6,24.2,29.77,WNW,293,0.0,0.0,37,0.00,,,0.00,WUHU215HW,2013-03-05 23:04:00,
2013-03-05 16:09:00,49.2,23.9,29.77,WNW,293,0.0,0.0,37,0.00,,,0.00,WUHU215HW,2013-03-05 23:09:00,
2013-03-05 16:14:00,49.1,23.7,29.77,WNW,293,0.0,0.0,37,0.00,,,0.00,WUHU215HW,2013-03-05 23:14:00,
2013-03-05 16:19:00,48.7,23.4,29.77,WNW,293,0.0,0.0,37,0.00,,,0.00,WUHU215HW,2013-03-05 23:19:00,
2013-03-05 16:24:00,48.7,23.4,29.77,NW,315,0.0,0.0,38,0.00,,,0.00,WUHU215HW,2013-03-05 23:24:00,
2013-03-05 16:29:00,48.7,23.4,29.77,NW,315,0.0,0.0,37,0.00,,,0.00,WUHU215HW,2013-03-05 23:29:00,
2013-03-05 16:34:00,48.9,23.5,29.77,NW,315,0.0,0.0,37,0.00,,,0.00,WUHU215HW,2013-03-05 23:34:00,
2013-03-05 16:39:00,48.5,23.4,29.77,NW,315,0.0,0.0,38,0.00,,,0.00,WUHU215HW,2013-03-05 23:39:00,
2013-03-05 16:44:00,48.2,23.6,29.77,WNW,293,0.0,0.0,38,0.00,,,0.00,WUHU215HW,2013-03-05 23:44:00,
2013-03-05 16:49:00,48.0,23.4,29.77,WNW,293,0.0,0.0,38,0.00,,,0.00,WUHU215HW,2013-03-05 23:49:00,
2013-03-05 16:54:00,47.6,23.3,29.76,WNW,293,0.0,0.0,38,0.00,,,0.00,WUHU215HW,2013-03-05 23:54:00,
2013-03-05 16:59:00,47.3,23.5,29.76,WNW,293,0.0,0.0,39,0.00,,,0.00,WUHU215HW,2013-03-05 23:59:00,
2013-03-05 17:04:00,47.1,23.3,29.76,WNW,293,0.0,0.0,39,0.00,,,0.00,WUHU215HW,2013-03-06 00:04:00,
2013-03-05 17:09:00,46.7,23.1,29.76,WNW,293,0.0,0.0,39,0.00,,,0.00,WUHU215HW,2013-03-06 00:09:00,
2013-03-05 17:14:00,46.7,23.0,29.77,WNW,293,0.0,0.0,39,0.00,,,0.00,WUHU215HW,2013-03-06 00:14:00,
2013-03-05 17:19:00,46.2,23.1,29.76,WNW,293,0.0,0.0,40,0.00,,,0.00,WUHU215HW,2013-03-06 00:19:00,
2013-03-05 17:24:00,45.6,22.7,29.76,WNW,293,0.0,0.0,40,0.00,,,0.00,WUHU215HW,2013-03-06 00:24:00,
2013-03-05 17:29:00,45.3,22.3,29.76,WNW,293,0.0,0.0,40,0.00,,,0.00,WUHU215HW,2013-03-06 00:29:00,
2013-03-05 17:34:00,45.1,22.2,29.76,WNW,293,0.0,0.0,40,0.00,,,0.00,WUHU215HW,2013-03-06 00:34:00,
2013-03-05 17:39:00,44.9,22.0,29.76,WNW,293,0.0,0.0,40,0.00,,,0.00,WUHU215HW,2013-03-06 00:39:00,
2013-03-05 17:44:00,44.7,22.4,29.76,WNW,293,0.0,0.0,41,0.00,,,0.00,WUHU215HW,2013-03-06 00:44:00,
2013-03-05 17:49:00,44.4,22.1,29.75,WNW,293,0.0,0.0,41,0.00,,,0.00,WUHU215HW,2013-03-06 00:49:00,
2013-03-05 17:54:00,43.8,21.9,29.75,WNW,293,0.0,0.0,41,0.00,,,0.00,WUHU215HW,2013-03-06 00:54:00,
2013-03-05 17:59:00,43.7,21.4,29.76,WNW,293,0.0,0.0,41,0.00,,,0.00,WUHU215HW,2013-03-06 00:59:00,
2013-03-05 18:04:00,43.5,21.3,29.75,WNW,293,0.0,0.0,41,0.00,,,0.00,WUHU215HW,2013-03-06 01:04:00,
2013-03-05 18:09:00,43.3,21.5,29.75,WNW,293,0.0,0.0,42,0.00,,,0.00,WUHU215HW,2013-03-06 01:09:00,
2013-03-05 18:14:00,42.9,21.3,29.75,WNW,293,0.0,0.0,42,0.00,,,0.00,WUHU215HW,2013-03-06 01:14:00,
2013-03-05 18:19:00,42.6,21.0,29.75,WNW,293,0.0,0.0,42,0.00,,,0.00,WUHU215HW,2013-03-06 01:19:00,
2013-03-05 18:24:00,42.2,20.6,29.75,WNW,293,0.0,0.0,42,0.00,,,0.00,WUHU215HW,2013-03-06 01:24:00,
2013-03-05 18:29:00,42.0,21.0,29.75,WNW,293,0.0,0.0,43,0.00,,,0.00,WUHU215HW,2013-03-06 01:29:00,
2013-03-05 18:34:00,41.7,20.7,29.75,WNW,293,0.0,0.0,43,0.00,,,0.00,WUHU215HW,2013-03-06 01:34:00,
2013-03-05 18:39:00,41.1,20.7,29.75,WNW,293,0.0,0.0,44,0.00,,,0.00,WUHU215HW,2013-03-06 01:39:00,
2013-03-05 18:44:00,41.1,20.7,29.75,West,270,0.0,0.0,44,0.00,,,0.00,WUHU215HW,2013-03-06 01:44:00,
2013-03-05 18:49:00,41.1,21.2,29.75,West,270,0.0,0.0,45,0.00,,,0.00,WUHU215HW,2013-03-06 01:49:00,
2013-03-05 18:54:00,40.8,20.9,29.75,West,270,0.0,0.0,45,0.00,,,0.00,WUHU215HW,2013-03-06 01:54:00,
2013-03-05 18:59:00,40.8,20.9,29.75,West,270,0.0,0.0,45,0.00,,,0.00,WUHU215HW,2013-03-06 01:59:00,
2013-03-05 19:04:00,40.6,20.7,29.75,West,270,0.0,0.0,45,0.00,,,0.00,WUHU215HW,2013-03-06 02:04:00,
2013-03-05 19:09:00,40.2,20.4,29.75,West,270,0.0,0.0,45,0.00,,,0.00,WUHU215HW,2013-03-06 02:09:00,
2013-03-05 19:14:00,40.1,20.8,29.74,West,270,0.0,0.0,46,0.00,,,0.00,WUHU215HW,2013-03-06 02:14:00,
2013-03-05 19:19:00,39.7,20.4,29.75,West,270,0.0,0.0,46,0.00,,,0.00,WUHU215HW,2013-03-06 02:19:00,
2013-03-05 19:24:00,39.3,20.6,29.75,West,270,0.0,0.0,47,0.00,,,0.00,WUHU215HW,2013-03-06 02:24:00,
2013-03-05 19:29:00,39.0,20.3,29.74,West,270,0.0,0.0,47,0.00,,,0.00,WUHU215HW,2013-03-06 02:29:00,
2013-03-05 19:34:00,38.8,20.7,29.73,West,270,0.0,0.0,48,0.00,,,0.00,WUHU215HW,2013-03-06 02:34:00,
2013-03-05 19:39:00,38.3,20.2,29.74,West,270,0.0,0.0,48,0.00,,,0.00,WUHU215HW,2013-03-06 02:39:00,
2013-03-05 19:44:00,38.1,20.6,29.73,West,270,0.0,0.0,49,0.00,,,0.00,WUHU215HW,2013-03-06 02:44:00,
2013-03-05 19:49:00,37.9,20.9,29.73,West,270,0.0,0.0,50,0.00,,,0.00,WUHU215HW,2013-03-06 02:49:00,
2013-03-05 19:54:00,37.4,20.4,29.73,West,270,0.0,0.0,50,0.00,,,0.00,WUHU215HW,2013-03-06 02:54:00,
2013-03-05 19:59:00,37.2,20.3,29.73,West,270,0.0,0.0,50,0.00,,,0.00,WUHU215HW,2013-03-06 02:59:00,
2013-03-05 20:04:00,37.0,20.1,29.73,West,270,0.0,0.0,50,0.00,,,0.00,WUHU215HW,2013-03-06 03:04:00,
2013-03-05 20:09:00,36.6,19.8,29.72,West,270,0.0,0.0,50,0.00,,,0.00,WUHU215HW,2013-03-06 03:09:00,
2013-03-05 20:14:00,36.5,20.1,29.72,West,270,0.0,0.0,51,0.00,,,0.00,WUHU215HW,2013-03-06 03:14:00,
2013-03-05 20:19:00,36.5,20.1,29.72,West,270,0.0,0.0,51,0.00,,,0.00,WUHU215HW,2013-03-06 03:19:00,
2013-03-05 20:24:00,36.3,20.3,29.72,West,270,0.0,0.0,52,0.00,,,0.00,WUHU215HW,2013-03-06 03:24:00,
2013-03-05 20:29:00,36.1,20.6,29.72,West,270,0.0,0.0,53,0.00,,,0.00,WUHU215HW,2013-03-06 03:29:00,
2013-03-05 20:34:00,35.9,20.9,29.72,West,270,0.0,0.0,54,0.00,,,0.00,WUHU215HW,2013-03-06 03:34:00,
2013-03-05 20:39:00,35.4,20.4,29.72,West,270,0.0,0.0,54,0.00,,,0.00,WUHU215HW,2013-03-06 03:39:00,
2013-03-05 20:44:00,35.2,20.6,29.71,West,270,0.0,0.0,55,0.00,,,0.00,WUHU215HW,2013-03-06 03:44:00,
2013-03-05 20:49:00,35.2,20.6,29.71,West,270,0.0,0.0,55,0.00,,,0.00,WUHU215HW,2013-03-06 03:49:00,
2013-03-05 20:54:00,35.2,20.6,29.71,West,270,0.0,0.0,55,0.00,,,0.00,WUHU215HW,2013-03-06 03:54:00,
2013-03-05 20:59:00,35.2,20.6,29.71,West,270,0.0,0.0,55,0.00,,,0.00,WUHU215HW,2013-03-06 03:59:00,
2013-03-05 21:04:00,35.0,20.4,29.71,West,270,0.0,0.0,55,0.00,,,0.00,WUHU215HW,2013-03-06 04:04:00,
2013-03-05 21:09:00,34.7,20.5,29.71,West,270,0.0,0.0,56,0.00,,,0.00,WUHU215HW,2013-03-06 04:09:00,
2013-03-05 21:14:00,34.3,20.1,29.70,West,270,0.0,0.0,56,0.00,,,0.00,WUHU215HW,2013-03-06 04:14:00,
2013-03-05 21:19:00,34.3,20.1,29.70,West,270,0.0,0.0,56,0.00,,,0.00,WUHU215HW,2013-03-06 04:19:00,
2013-03-05 21:24:00,34.1,20.0,29.70,West,270,0.0,0.0,56,0.00,,,0.00,WUHU215HW,2013-03-06 04:24:00,
2013-03-05 21:29:00,33.8,20.0,29.70,West,270,0.0,0.0,57,0.00,,,0.00,WUHU215HW,2013-03-06 04:29:00,
2013-03-05 21:34:00,33.6,19.9,29.70,West,270,0.0,0.0,57,0.00,,,0.00,WUHU215HW,2013-03-06 04:34:00,
2013-03-05 21:39:00,33.4,20.1,29.70,West,270,0.0,0.0,58,0.00,,,0.00,WUHU215HW,2013-03-06 04:39:00,
2013-03-05 21:44:00,33.4,20.1,29.70,West,270,0.0,0.0,58,0.00,,,0.00,WUHU215HW,2013-03-06 04:44:00,
2013-03-05 21:49:00,33.0,20.3,29.70,West,270,0.0,0.0,59,0.00,,,0.00,WUHU215HW,2013-03-06 04:49:00,
2013-03-05 21:54:00,32.7,19.5,29.69,West,270,0.0,0.0,58,0.00,,,0.00,WUHU215HW,2013-03-06 04:54:00,
2013-03-05 21:59:00,32.5,19.8,29.69,West,270,0.0,0.0,59,0.00,,,0.00,WUHU215HW,2013-03-06 04:59:00,
2013-03-05 22:00:00,32.5,19.8,29.69,West,270,0.0,0.0,59,0.00,,,0.00,WUHU215HW,2013-03-06 05:00:00,
2013-03-05 22:01:00,32.5,19.8,29.68,West,270,0.0,0.0,59,0.00,,,0.00,WUHU215HW,2013-03-06 05:01:00,
2013-03-05 22:03:00,32.3,19.6,29.68,West,270,0.0,0.0,59,0.00,,,0.00,WUHU215HW,2013-03-06 05:03:00,
2013-03-05 22:05:00,32.3,19.6,29.69,West,270,0.0,0.0,59,0.00,,,0.00,WUHU215HW,2013-03-06 05:05:00,
2013-03-05 22:10:00,32.1,19.9,29.69,West,270,0.0,0.0,60,0.00,,,0.00,WUHU215HW,2013-03-06 05:10:00,
2013-03-05 22:15:00,32.1,19.9,29.68,West,270,0.0,0.0,60,0.00,,,0.00,WUHU215HW,2013-03-06 05:15:00,
2013-03-05 22:20:00,31.8,19.9,29.68,West,270,0.0,0.0,61,0.00,,,0.00,WUHU215HW,2013-03-06 05:20:00,
2013-03-05 22:25:00,31.6,19.7,29.68,West,270,0.0,0.0,61,0.00,,,0.00,WUHU215HW,2013-03-06 05:25:00,
2013-03-05 22:30:00,31.6,19.7,29.68,West,270,0.0,0.0,61,0.00,,,0.00,WUHU215HW,2013-03-06 05:30:00,
2013-03-05 22:35:00,31.6,19.7,29.68,West,270,0.0,0.0,61,0.00,,,0.00,WUHU215HW,2013-03-06 05:35:00,
2013-03-05 22:40:00,31.6,20.1,29.68,West,270,0.0,0.0,62,0.00,,,0.00,WUHU215HW,2013-03-06 05:40:00,
2013-03-05 22:45:00,31.6,20.1,29.68,West,270,0.0,0.0,62,0.00,,,0.00,WUHU215HW,2013-03-06 05:45:00,
2013-03-05 22:50:00,31.4,20.3,29.68,West,270,0.0,0.0,63,0.00,,,0.00,WUHU215HW,2013-03-06 05:50:00,
2013-03-05 22:55:00,31.2,20.1,29.68,West,270,0.0,0.0,63,0.00,,,0.00,WUHU215HW,2013-03-06 05:55:00,
2013-03-05 23:01:00,31.1,20.3,29.67,West,270,0.0,0.0,64,0.00,,,0.00,WUHU215HW,2013-03-06 06:01:00,
2013-03-05 23:07:00,30.9,20.1,29.67,West,270,0.0,0.0,64,0.00,,,0.00,WUHU215HW,2013-03-06 06:07:00,
2013-03-05 23:12:00,30.7,20.3,29.67,West,270,0.0,0.0,65,0.00,,,0.00,WUHU215HW,2013-03-06 06:12:00,
2013-03-05 23:17:00,30.7,20.3,29.67,West,270,0.0,0.0,65,0.00,,,0.00,WUHU215HW,2013-03-06 06:17:00,
2013-03-05 23:22:00,30.9,20.4,29.67,West,270,0.0,0.0,65,0.00,,,0.00,WUHU215HW,2013-03-06 06:22:00,
2013-03-05 23:27:00,30.9,20.4,29.67,West,270,0.0,0.0,65,0.00,,,0.00,WUHU215HW,2013-03-06 06:27:00,
2013-03-05 23:32:00,30.7,20.3,29.66,West,270,0.0,0.0,65,0.00,,,0.00,WUHU215HW,2013-03-06 06:32:00,
2013-03-05 23:37:00,30.5,20.4,29.65,West,270,0.0,0.0,66,0.00,,,0.00,WUHU215HW,2013-03-06 06:37:00,
2013-03-05 23:42:00,30.3,19.9,29.65,West,270,0.0,0.0,65,0.00,,,0.00,WUHU215HW,2013-03-06 06:42:00,
2013-03-05 23:47:00,30.3,19.9,29.65,West,270,0.0,0.0,65,0.00,,,0.00,WUHU215HW,2013-03-06 06:47:00,
2013-03-05 23:52:00,30.3,20.3,29.65,West,270,0.0,0.0,66,0.00,,,0.00,WUHU215HW,2013-03-06 06:52:00,
2013-03-05 23:57:00,30.2,19.7,29.64,West,270,0.0,0.0,65,0.00,,,0.00,WUHU215HW,2013-03-06 06:57:00,